Charleston, SC

10:33 PM EDT on March 22, 2017 (GMT -0400)
Charleston Executive

Weather History for KJZI - February, 2014

Change the Weather History Date:

Sunday, February 16, 2014

  Actual Average (KCHS) Record (KCHS)
Temperature  
Mean Temperature 48 °F -  
Max Temperature 64 °F 64 °F 87 °F (1989)
Min Temperature 33 °F 43 °F 19 °F (1991)
Degree Days  
Heating Degree Days 16    
Moisture  
Dew Point 34 °F    
Average Humidity 64    
Maximum Humidity 87    
Minimum Humidity 22    
Precipitation  
Precipitation 0.00 in - - ()
Sea Level Pressure  
Sea Level Pressure 30.13 in    
Wind  
Wind Speed 4 mph (WSW)    
Max Wind Speed 15 mph    
Max Gust Speed 17 mph    
Visibility 10 miles    
Events      
Averages and records for this station are not official NWS values.
T = Trace of Precipitation, MM = Missing Value Source: NWS Daily Summary

Daily Weather History Graph

Daily Weather History Graph

Search for Another Location

Airport or City:

Trip Planner

Search our weather history database for the weather conditions in past years. The results will help you decide how hot, cold, wet, or windy it might be!

Date:

Astronomy

Feb. 16, 2014 Rise Set
Actual Time 7:02 AM EST 6:06 PM EST
Civil Twilight 6:36 AM EST 6:31 PM EST
Nautical Twilight 6:08 AM EST 7:00 PM EST
Astronomical Twilight 5:39 AM EST 7:29 PM EST
Moon 7:52 PM EST (2/16) 7:38 AM EST (2/16)
Length of Visible Light 11h 54m
Length of Day
11h 04m
Full, 97% of the Moon is Illuminated
Feb 16
Full
Feb 22
Last Quarter
Mar 1
New
Mar 8
First Quarter
Mar 16
Full

Hourly Weather History & Observations

Time (EST) Temp. Windchill Dew Point Humidity Pressure Visibility Wind Dir Wind Speed Gust Speed Precip Events Conditions
12:15 AM 42.8 °F 39.3 °F 30.2 °F 61% 30.09 in 10.0 mi WNW 5.8 mph - 0.00 in   Clear
12:35 AM 41.0 °F 39.0 °F 30.2 °F 65% 30.09 in 10.0 mi West 3.5 mph - 0.00 in   Clear
12:55 AM 42.8 °F - 30.2 °F 61% 30.09 in 10.0 mi Calm Calm - 0.00 in   Clear
1:15 AM 41.0 °F - 30.2 °F 65% 30.08 in 10.0 mi Calm Calm - 0.00 in   Partly Cloudy
1:35 AM 39.2 °F - 30.2 °F 70% 30.08 in 10.0 mi Calm Calm - 0.00 in   Mostly Cloudy
1:55 AM 39.2 °F - 32.0 °F 75% 30.09 in 10.0 mi Calm Calm - 0.00 in   Mostly Cloudy
2:15 AM 37.4 °F - 32.0 °F 81% 30.08 in 10.0 mi Calm Calm - 0.00 in   Clear
2:35 AM 37.4 °F - 32.0 °F 81% 30.08 in 10.0 mi Calm Calm - 0.00 in   Clear
2:55 AM 37.4 °F - 32.0 °F 81% 30.08 in 10.0 mi Calm Calm - 0.00 in   Clear
3:15 AM 37.4 °F - 32.0 °F 81% 30.08 in 10.0 mi Calm Calm - 0.00 in   Clear
3:35 AM 35.6 °F - 32.0 °F 87% 30.09 in 10.0 mi Calm Calm - 0.00 in   Clear
3:55 AM 35.6 °F - 32.0 °F 87% 30.09 in 10.0 mi Calm Calm - 0.00 in   Clear
4:15 AM 37.4 °F - 30.2 °F 75% 30.09 in 10.0 mi Calm Calm - 0.00 in   Clear
4:35 AM 33.8 °F - 30.2 °F 87% 30.09 in 10.0 mi Calm Calm - 0.00 in   Clear
4:55 AM 33.8 °F - 30.2 °F 87% 30.11 in 10.0 mi Calm Calm - 0.00 in   Clear
5:15 AM 35.6 °F - 30.2 °F 81% 30.11 in 10.0 mi Calm Calm - 0.00 in   Clear
5:35 AM 37.4 °F - 30.2 °F 75% 30.13 in 10.0 mi Calm Calm - 0.00 in   Clear
5:55 AM 37.4 °F - 30.2 °F 75% 30.13 in 10.0 mi Calm Calm - 0.00 in   Clear
6:15 AM 35.6 °F - 32.0 °F 87% 30.13 in 10.0 mi Calm Calm - 0.00 in   Clear
6:35 AM 37.4 °F - 30.2 °F 75% 30.14 in 10.0 mi Calm Calm - 0.00 in   Clear
6:55 AM 37.4 °F - 30.2 °F 75% 30.14 in 10.0 mi Calm Calm - 0.00 in   Clear
7:15 AM 37.4 °F 33.8 °F 30.2 °F 75% 30.15 in 10.0 mi West 4.6 mph - 0.00 in   Clear
7:35 AM 37.4 °F - 30.2 °F 75% 30.15 in 10.0 mi Calm Calm - 0.00 in   Clear
7:55 AM 37.4 °F 32.8 °F 30.2 °F 75% 30.16 in 10.0 mi West 5.8 mph - 0.00 in   Clear
8:15 AM 39.2 °F 35.0 °F 32.0 °F 75% 30.16 in 10.0 mi West 5.8 mph - 0.00 in   Clear
8:35 AM 41.0 °F 36.4 °F 32.0 °F 70% 30.17 in 10.0 mi WNW 6.9 mph - 0.00 in   Scattered Clouds
8:55 AM 42.8 °F 38.6 °F 30.2 °F 61% 30.17 in 10.0 mi West 6.9 mph - 0.00 in   Scattered Clouds
9:15 AM 44.6 °F 41.4 °F 30.2 °F 57% 30.17 in 10.0 mi WNW 5.8 mph - 0.00 in   Mostly Cloudy
9:35 AM 46.4 °F 44.3 °F 30.2 °F 53% 30.17 in 10.0 mi WNW 4.6 mph - 0.00 in   Scattered Clouds
9:55 AM 48.2 °F - 30.2 °F 50% 30.17 in 10.0 mi Calm Calm - 0.00 in   Clear
10:15 AM 50.0 °F - 30.2 °F 47% 30.17 in 10.0 mi West 4.6 mph - 0.00 in   Scattered Clouds
10:55 AM 53.6 °F - 28.4 °F 38% 30.16 in 10.0 mi Calm Calm - 0.00 in   Clear
11:15 AM 55.4 °F - 26.6 °F 33% 30.17 in 10.0 mi WNW 4.6 mph - 0.00 in   Clear
11:35 AM 57.2 °F - 26.6 °F 31% 30.16 in 10.0 mi WNW 9.2 mph - 0.00 in   Clear
11:55 AM 57.2 °F - 24.8 °F 29% 30.16 in 10.0 mi West 6.9 mph - 0.00 in   Clear
12:15 PM 59.0 °F - 26.6 °F 29% 30.14 in 10.0 mi West 3.5 mph - 0.00 in   Clear
12:35 PM 59.0 °F - 24.8 °F 27% 30.14 in 10.0 mi WSW 8.1 mph - 0.00 in   Clear
12:55 PM 60.8 °F - 23.0 °F 23% 30.13 in 10.0 mi WNW 10.4 mph - 0.00 in   Clear
1:15 PM 60.8 °F - 23.0 °F 23% 30.12 in 10.0 mi West 11.5 mph - 0.00 in   Clear
1:35 PM 62.6 °F - 23.0 °F 22% 30.11 in 10.0 mi West 9.2 mph - 0.00 in   Clear
1:55 PM 62.6 °F - 23.0 °F 22% 30.10 in 10.0 mi West 5.8 mph - 0.00 in   Clear
2:15 PM 64.4 °F - 24.8 °F 22% 30.09 in 10.0 mi WSW 5.8 mph - 0.00 in   Clear
2:35 PM 60.8 °F - 33.8 °F 36% 30.09 in 10.0 mi SSW 11.5 mph 17.3 mph 0.00 in   Clear
2:55 PM 59.0 °F - 35.6 °F 42% 30.09 in 10.0 mi SSW 12.7 mph - 0.00 in   Clear
3:15 PM 60.8 °F - 33.8 °F 36% 30.09 in 10.0 mi SSW 13.8 mph - 0.00 in   Clear
3:35 PM 59.0 °F - 35.6 °F 42% 30.09 in 10.0 mi SSW 12.7 mph - 0.00 in   Clear
3:55 PM 59.0 °F - 39.2 °F 48% 30.09 in 10.0 mi South 15.0 mph - 0.00 in   Clear
4:15 PM 57.2 °F - 39.2 °F 51% 30.09 in 10.0 mi SSW 11.5 mph - 0.00 in   Clear
4:35 PM 57.2 °F - 39.2 °F 51% 30.09 in 10.0 mi SSW 10.4 mph - 0.00 in   Clear
4:55 PM 55.4 °F - 39.2 °F 54% 30.10 in 10.0 mi SW 11.5 mph 16.1 mph 0.00 in   Clear
5:15 PM 53.6 °F - 39.2 °F 58% 30.10 in 10.0 mi SSW 11.5 mph - 0.00 in   Clear
5:35 PM 53.6 °F - 39.2 °F 58% 30.10 in 10.0 mi SSW 9.2 mph - 0.00 in   Clear
5:55 PM 51.8 °F - 39.2 °F 62% 30.11 in 10.0 mi SW 6.9 mph - 0.00 in   Clear
6:15 PM 51.8 °F - 39.2 °F 62% 30.12 in 10.0 mi SSW 5.8 mph - 0.00 in   Clear
6:35 PM 50.0 °F - 39.2 °F 66% 30.13 in 10.0 mi SW 5.8 mph - 0.00 in   Clear
6:55 PM 48.2 °F - 41.0 °F 76% 30.13 in 10.0 mi SW 4.6 mph - 0.00 in   Clear
7:15 PM 48.2 °F - 42.8 °F 82% 30.13 in 10.0 mi SW 6.9 mph - 0.00 in   Clear
7:35 PM 48.2 °F - 42.8 °F 82% 30.14 in 10.0 mi SW 6.9 mph - 0.00 in   Clear
7:55 PM 48.2 °F - 42.8 °F 82% 30.14 in 10.0 mi SW 8.1 mph - 0.00 in   Clear
8:15 PM 48.2 °F - 42.8 °F 82% 30.15 in 10.0 mi SSW 5.8 mph - 0.00 in   Clear
8:35 PM 48.2 °F - 42.8 °F 82% 30.15 in 10.0 mi SW 8.1 mph - 0.00 in   Clear
8:55 PM 48.2 °F - 42.8 °F 82% 30.16 in 10.0 mi SW 8.1 mph - 0.00 in   Clear
9:15 PM 48.2 °F - 42.8 °F 82% 30.16 in 10.0 mi SW 8.1 mph - 0.00 in   Clear
9:35 PM 48.2 °F - 42.8 °F 82% 30.15 in 10.0 mi SW 8.1 mph - 0.00 in   Clear
9:55 PM 48.2 °F - 42.8 °F 82% 30.16 in 10.0 mi SW 5.8 mph - 0.00 in   Clear
10:15 PM 48.2 °F - 42.8 °F 82% 30.16 in 10.0 mi WSW 5.8 mph - 0.00 in   Clear
10:35 PM 48.2 °F - 42.8 °F 82% 30.16 in 10.0 mi SW 4.6 mph - 0.00 in   Clear
10:55 PM 48.2 °F - 42.8 °F 82% 30.17 in 10.0 mi Calm Calm - 0.00 in   Clear
11:15 PM 48.2 °F - 42.8 °F 82% 30.17 in 10.0 mi SW 4.6 mph - 0.00 in   Clear
11:35 PM 48.2 °F - 42.8 °F 82% 30.17 in 10.0 mi Calm Calm - 0.00 in   Clear
11:55 PM 48.2 °F - 44.6 °F 87% 30.17 in 10.0 mi Calm Calm - 0.00 in   Clear